Regional Weather Roundup
Issued by NWS Cleveland, OH

Home | Current Version | Previous Version | Graphics & Text | Print | Product List | Glossary On
Versions: 1 2 3 4 5 6 7 8 9 10 11 12 13 14 15 16 17 18 19 20 21 22 23 24 25 26 27 28 29 30 31 32 33 34 35 36 37 38 39 40 41 42 43 44 45 46 47 48 49 50
490
ASUS41 KCLE 220212
RWRCLE
OHIO REGIONAL WEATHER ROUNDUP
NATIONAL WEATHER SERVICE WILMINGTON, OH
900 PM EST SUN JAN 21 2018

NOTE: "FAIR" INDICATES FEW OR NO CLOUDS BELOW 12,000 FEET WITH NO
SIGNIFICANT WEATHER AND/OR OBSTRUCTIONS TO VISIBILITY.

OHZ001>008-015>018-024>027-034-035-043-044-220300-
   NORTHWEST OHIO

CITY           SKY/WX    TMP DP  RH WIND       PRES   REMARKS
DEFIANCE       FOG       44  43  96 S5        30.00S VSB 1/2
FINDLAY        CLOUDY    45  41  86 SE7       30.01S
TOLEDO EXPRESS LGT RAIN  42  42 100 SE3       30.01S VSB 1/4
TOLEDO EXEC    FOG       42  41  96 S5        30.02S VSB 1/2
LIMA           CLOUDY    49  47  93 S10       30.01S
$$

OHZ009>014-019>023-028>033-038-089-220300-
   NORTHEAST OHIO

CITY           SKY/WX    TMP DP  RH WIND       PRES   REMARKS
CLE-HOPKINS    DRIZZLE   46  44  93 S6        30.07S FOG
CLE-LAKEFRONT  CLOUDY    46  43  89 S8        30.04S
CUY CO. ARPT   CLOUDY    46  32  57 S7        30.05F
LORAIN-ELYRIA  LGT RAIN  43  39  86 S5        30.04F VSB 1/2
ASHTABULA      CLOUDY    41  41 100 S3        30.07R FOG
AKRON-CANTON   FOG       42  40  92 S5        30.06S VSB 1/4
WOOSTER        CLOUDY    43  43 100 S3        30.05F FOG
MANSFIELD      CLOUDY    47  45  93 S9        30.04F
YOUNGSTOWN     LGT RAIN  43  43 100 SW6       30.06S VSB 1/2
$$

OHZ042-051>053-060>062-070>072-077>081-220300-
  SOUTHWEST OHIO

CITY           SKY/WX    TMP DP  RH WIND       PRES   REMARKS
CINC-COVINGTON CLOUDY    52  50  93 SE6       30.03F
CINC-LUNKEN    CLOUDY    50  48  93 CALM      30.06S
HAMILTON       CLOUDY    50  49  96 E3        30.05F
DAYTON         CLOUDY    51  50  96 S8        30.05S
WRIGHT-PAT AFB CLOUDY    50  48  93 CALM      30.04F
DAYTON GENERAL CLOUDY    51  48  89 S8        30.04S
WILMINGTON     CLOUDY    49  49 100 S6        30.05S
$$

OHZ036-037-039>041-045>050-054>059-063>069-073>076-082>088-220300-
  CENTRAL AND SOUTHEAST OHIO

CITY           SKY/WX    TMP DP  RH WIND       PRES   REMARKS
COLUMBUS       CLOUDY    49  49 100 CALM      30.06S
OSU AIRPORT    CLOUDY    49  49 100 S7        30.05S
BOLTON FIELD   CLOUDY    47  47  99 S3        30.06S FOG
RICKENBACK AFB CLOUDY    46  47 100 S3        30.06S FOG
NEWARK         CLOUDY    39  39 100 CALM      30.06S FOG
MARION         CLOUDY    45  43  93 S8        30.04S
LANCASTER      CLOUDY    51  49  92 S5        30.07S
ZANESVILLE     CLOUDY    50  48  93 SW5       30.08S
NEW PHILLY     CLOUDY    39  38  96 SE6       30.08S
$$




USA.gov is the U.S. government's official web portal to all federal, state and local government web resources and services.